map of SNO home
SNO - Airport
Location
City:  Sakon Nakhon, Sakon Nakhon, Thailand
ICAO:VTUI
IATA:SNO

Details
Type:Airport (Aerodrome, Airfield)
Use:Public/Civil, Military
Latitude:1711'43"N (17.195142)
Longitude:10407'07"E (104.118625)
Datum:WGS 1984
Elevation:529 ft (161 m)
Variation:1.07W (WMM2015v2 magnetic declination)
-0.04 annual change
Runways:1
Longest:8530 × 148 ft (2600 × 45 m), paved

Time
Time Zone:UTC+7
Local Time:

Weather
METAR:VTUI 041400Z VRB02KT CAVOK 25/20 Q1013 NOSIG
TAF:VTUI 041100Z 0412/0512 07005KT 8000 NSC
BECMG 0422/0424 4000 BR
BECMG 0501/0503 8000 NSW

Related Locations
Nearby:
Farthest:SPYU: 12296 mi / 19789 km
Yauca, ARE, PE

Find:

   beyond  
but within

Other Information
Maps:
NOTAMs:
Links:
Sources:

  
  • flag of Thailand
  

Sectional Chart

Flight Planning
at skyvector.com

Satellite Image

Google Maps Satellite view

 

Copyright © 2004-2019 Karl L. Swartz. All rights reserved.
The Great Circle Mapper name and logo are trademarks of the Great Circle Mapper.
All other trademarks mentioned herein belong to their respective owners.
Please see credits for attibutions and further copyright information.

  Follow gcmap on Facebook Follow gcmap on Twitter GCmap on LinkedIn

hCard Microformat

Geo Microformat